Location: Brunembert
(50.7122°N, 1.8935°E)
Time: 10:06:07
(UTC+00:00)

Tiangong - Pass Details

Date: 29 September 2021
Orbit: 382 x 385 km, 41.5° (Epoch: 15 October)

Event Time Altitude Azimuth Distance (km) Brightness Sun altitude
Exits shadow 04:11:55 10° 180° (S) 1,428 3.8 -16.1°
Reaches altitude 10° 04:12:13 10° 175° (S) 1,396 3.8 -16.1°
Maximum altitude 04:12:54 11° 162° (SSE) 1,366 3.9 -16.0°
Drops below altitude 10° 04:13:35 10° 150° (SSE) 1,397 4.1 -15.9°
Sets 04:17:07 0° 108° (ESE) 2,251 5.9 -15.3°
